FW8987 Weather Reports


time (UTC)temp
C
wind
direction
speed
KPH
gust
KPH
rain 1hr
cm
rain 24hr
cm
rain mn
cm
humidity
%
barometer
mb
20220812000547 13 180 0.0 1.6 0.00 0.00 0.00 95 1019.6
20220811235618 12 0.0 1.6 0.00 0.00 0.00 97 1019.6
20220811234557 12 166 0.0 1.6 0.00 0.00 0.00 97 1019.5
20220811233528 12 0.0 0.0 0.00 0.00 0.00 98 1019.5
20220811232558 12 0.0 0.0 0.00 0.00 0.00 98 1019.7
20220811231637 12 166 0.0 1.6 0.00 0.00 0.00 98 1019.6
20220811230618 12 0.0 0.0 0.00 0.00 0.00 98 1019.7
20220811225618 12 0.0 0.0 0.00 0.00 0.00 98 1019.6
20220811224559 13 0.0 0.0 0.00 0.00 0.00 98 1019.6
20220811223559 13 0.0 1.6 0.00 0.00 0.00 98 1019.7
20220811222632 12 167 0.0 1.6 0.00 0.00 0.00 97 1019.6
20220811221533 13 0.0 0.0 0.00 0.00 0.00 98 1019.5
20220811220600 13 0.0 0.0 0.00 0.00 0.00 98 1019.5
20220811215617 13 0.0 0.0 0.00 0.00 0.00 97 1019.5
20220811214517 14 0.0 0.0 0.00 0.00 0.00 97 1019.5
20220811213519 14 0.0 0.0 0.00 0.00 0.00 97 1019.6
20220811211559 14 0.0 0.0 0.00 0.00 0.00 96 1019.4
20220811210558 15 0.0 0.0 0.00 0.00 0.00 96 1019.5
20220811205520 15 0.0 0.0 0.00 0.00 0.00 95 1019.4
20220811204519 15 0.0 0.0 0.00 0.00 0.00 95 1019.4
20220811203536 16 0.0 0.0 0.00 0.00 0.00 93 1019.5
20220811202536 16 0.0 0.0 0.00 0.00 0.00 93 1019.7
20220811201537 15 0.0 0.0 0.00 0.00 0.00 93 1019.5
20220811200557 16 0.0 0.0 0.00 0.00 0.00 91 1019.4
20220811195614 16 0.0 0.0 0.00 0.00 0.00 92 1019.5
20220811194627 16 0.0 0.0 0.00 0.00 0.00 92 1019.5
20220811193620 17 0.0 0.0 0.00 0.00 0.00 90 1019.4
20220811192552 17 0.0 0.0 0.00 0.00 0.00 88 1019.2
20220811191551 18 0.0 0.0 0.00 0.00 0.00 87 1019.4
20220811190523 18 0.0 0.0 0.00 0.00 0.00 86 1019.3
20220811185544 19 0.0 0.0 0.00 0.00 0.00 82 1019.2
20220811184544 20 166 0.0 1.6 0.00 0.00 0.00 77 1019.3
20220811183524 20 0.0 1.6 0.00 0.00 0.00 76 1019.1
20220811182613 21 167 0.0 1.6 0.00 0.00 0.00 75 1019.1
20220811181646 22 169 0.0 1.6 0.00 0.00 0.00 72 1019.0
20220811180546 22 166 1.6 3.2 0.00 0.00 0.00 70 1019.1
20220811175526 23 150 1.6 3.2 0.00 0.00 0.00 67 1019.0
20220811174547 23 155 1.6 3.2 0.00 0.00 0.00 66 1018.9
20220811173527 23 166 0.0 3.2 0.00 0.00 0.00 65 1018.9
20220811172528 24 156 1.6 3.2 0.00 0.00 0.00 63 1018.9
20220811171528 26 236 3.2 8.0 0.00 0.00 0.00 51 1019.0
20220811170528 26 222 3.2 8.0 0.00 0.00 0.00 52 1018.9
20220811165655 26 239 6.4 12.9 0.00 0.00 0.00 50 1018.9
20220811164613 26 233 6.4 12.9 0.00 0.00 0.00 50 1019.0
20220811163525 26 230 4.8 11.3 0.00 0.00 0.00 50 1018.8
20220811162546 26 223 4.8 14.5 0.00 0.00 0.00 51 1019.0
20220811161527 25 222 3.2 8.0 0.00 0.00 0.00 53 1019.0
20220811160547 25 229 4.8 11.3 0.00 0.00 0.00 52 1019.0
20220811155608 25 208 3.2 11.3 0.00 0.00 0.00 52 1019.1
20220811154656 25 233 3.2 11.3 0.00 0.00 0.00 51 1019.0
20220811153736 26 212 4.8 12.9 0.00 0.00 0.00 50 1019.0
20220811152556 26 221 6.4 12.9 0.00 0.00 0.00 49 1019.0
20220811151718 25 221 4.8 11.3 0.00 0.00 0.00 51 1019.0
20220811150617 26 243 6.4 11.3 0.00 0.00 0.00 50 1019.0
20220811145618 26 238 6.4 12.9 0.00 0.00 0.00 50 1019.0
20220811144558 26 248 8.0 14.5 0.00 0.00 0.00 50 1019.0
20220811143558 26 219 4.8 9.7 0.00 0.00 0.00 51 1019.0
20220811142636 25 243 4.8 8.0 0.00 0.00 0.00 52 1019.0
20220811141639 25 250 4.8 9.7 0.00 0.00 0.00 50 1019.1
20220811140620 26 240 3.2 9.7 0.00 0.00 0.00 51 1019.2
20220811135600 25 222 3.2 4.8 0.00 0.00 0.00 53 1019.2
20220811134614 26 256 4.8 9.7 0.00 0.00 0.00 51 1019.2
20220811133532 27 248 6.4 12.9 0.00 0.00 0.00 49 1019.2
20220811132516 27 229 3.2 9.7 0.00 0.00 0.00 49 1019.1
20220811131517 27 223 4.8 8.0 0.00 0.00 0.00 50 1019.3
20220811130622 26 248 6.4 14.5 0.00 0.00 0.00 51 1019.2
20220811125534 26 212 4.8 9.7 0.00 0.00 0.00 53 1019.2
20220811124535 26 194 1.6 12.9 0.00 0.00 0.00 54 1019.2
20220811123534 26 239 4.8 12.9 0.00 0.00 0.00 52 1019.3
20220811122519 26 215 3.2 8.0 0.00 0.00 0.00 53 1019.3
20220811121519 27 227 1.6 4.8 0.00 0.00 0.00 50 1019.2
20220811120600 26 228 1.6 4.8 0.00 0.00 0.00 53 1019.3
20220811115538 26 202 0.0 3.2 0.00 0.00 0.00 51 1019.3
20220811114558 25 192 1.6 4.8 0.00 0.00 0.00 50 1019.3
20220811113541 25 213 3.2 14.5 0.00 0.00 0.00 52 1019.4
20220811112600 25 233 4.8 4.8 0.00 0.00 0.00 53 1019.5
20220811111518 25 201 1.6 9.7 0.00 0.00 0.00 54 1019.5
20220811110614 25 234 3.2 9.7 0.00 0.00 0.00 53 1019.6
20220811105559 25 222 3.2 9.7 0.00 0.00 0.00 53 1019.6
20220811104719 25 200 0.0 4.8 0.00 0.00 0.00 53 1019.5
20220811103700 24 276 3.2 8.0 0.00 0.00 0.00 55 1019.5
20220811102600 24 258 4.8 9.7 0.00 0.00 0.00 55 1019.5
20220811101536 25 232 3.2 4.8 0.00 0.00 0.00 54 1019.5
20220811100537 24 252 4.8 8.0 0.00 0.00 0.00 54 1019.5
20220811095518 24 230 4.8 12.9 0.00 0.00 0.00 54 1019.5
20220811094520 23 243 3.2 9.7 0.00 0.00 0.00 56 1019.5
20220811093518 23 237 3.2 9.7 0.00 0.00 0.00 57 1019.5
20220811092555 23 225 3.2 9.7 0.00 0.00 0.00 58 1019.4
20220811091655 23 241 3.2 8.0 0.00 0.00 0.00 57 1019.4
20220811090519 23 253 4.8 9.7 0.00 0.00 0.00 60 1019.3
20220811085522 22 244 6.4 11.3 0.00 0.00 0.00 62 1019.3
20220811084520 22 228 4.8 12.9 0.00 0.00 0.00 61 1019.2
20220811083521 22 238 6.4 14.5 0.00 0.00 0.00 61 1019.3
20220811082522 22 242 8.0 12.9 0.00 0.00 0.00 62 1019.2
20220811081522 22 246 6.4 14.5 0.00 0.00 0.00 62 1019.0
20220811080523 22 242 6.4 14.5 0.00 0.00 0.00 63 1019.0
20220811075542 22 249 6.4 12.9 0.00 0.00 0.00 62 1018.9
20220811074523 21 263 8.0 12.9 0.00 0.00 0.00 62 1018.8
20220811073543 21 269 9.7 16.1 0.00 0.00 0.00 63 1018.7
20220811072523 21 259 9.7 16.1 0.00 0.00 0.00 63 1018.7
20220811071524 21 239 6.4 11.3 0.00 0.00 0.00 64 1018.7
20220811070544 21 258 4.8 11.3 0.00 0.00 0.00 63 1018.7
20220811065605 21 242 6.4 14.5 0.00 0.00 0.00 65 1018.6
20220811064526 21 196 1.6 4.8 0.00 0.00 0.00 69 1018.5
20220811063546 21 212 1.6 4.8 0.00 0.00 0.00 69 1018.3
20220811062526 20 214 3.2 4.8 0.00 0.00 0.00 70 1018.3
20220811061606 20 219 3.2 9.7 0.00 0.00 0.00 72 1018.3
20220811060527 20 229 3.2 8.0 0.00 0.00 0.00 73 1018.3
20220811055547 19 232 3.2 8.0 0.00 0.00 0.00 75 1018.2
20220811054528 19 223 3.2 8.0 0.00 0.00 0.00 77 1018.0
20220811053631 18 184 1.6 4.8 0.00 0.00 0.00 77 1018.0
20220811052528 18 198 1.6 8.0 0.00 0.00 0.00 79 1018.0
20220811051609 17 204 3.2 9.7 0.00 0.00 0.00 81 1017.9
20220811050529 17 240 6.4 12.9 0.00 0.00 0.00 81 1017.6
20220811045614 17 235 6.4 12.9 0.00 0.00 0.00 83 1017.6
20220811044551 17 199 3.2 9.7 0.00 0.00 0.00 84 1017.7
20220811043614 16 216 4.8 11.3 0.00 0.00 0.00 85 1017.8
20220811042531 16 211 3.2 11.3 0.00 0.00 0.00 85 1017.7
20220811041635 16 228 8.0 16.1 0.00 0.00 0.00 85 1017.7
20220811040552 16 247 8.0 12.9 0.00 0.00 0.00 86 1017.7
20220811035532 16 232 6.4 12.9 0.00 0.00 0.00 88 1017.7
20220811034517 16 227 6.4 11.3 0.00 0.00 0.00 89 1017.8
20220811033538 16 232 4.8 11.3 0.00 0.00 0.00 89 1017.8
20220811032538 16 210 3.2 8.0 0.00 0.00 0.00 90 1017.8
20220811031519 16 216 3.2 4.8 0.00 0.00 0.00 89 1017.9
20220811030518 16 215 1.6 3.2 0.00 0.00 0.00 89 1018.0
20220811025615 16 198 1.6 3.2 0.00 0.00 0.00 89 1017.9
20220811024615 16 192 1.6 8.0 0.00 0.00 0.00 90 1017.9
20220811023636 16 197 1.6 4.8 0.00 0.00 0.00 89 1017.9
20220811022541 16 197 0.0 8.0 0.00 0.00 0.00 87 1018.0
20220811021541 16 205 1.6 4.8 0.00 0.00 0.00 87 1018.1
20220811020522 17 239 3.2 8.0 0.00 0.00 0.00 86 1018.0
20220811015538 16 193 1.6 9.7 0.00 0.00 0.00 88 1017.9
20220811014538 16 196 1.6 3.2 0.00 0.00 0.00 89 1017.9
20220811013618 16 212 1.6 8.0 0.00 0.00 0.00 88 1017.9
20220811012618 16 201 0.0 1.6 0.00 0.00 0.00 91 1017.9
20220811011600 16 173 1.6 3.2 0.00 0.00 0.00 89 1017.8
20220811010539 16 155 0.0 3.2 0.00 0.00 0.00 91 1018.0
20220811005540 16 155 0.0 1.6 0.00 0.00 0.00 92 1017.9
20220811004541 15 169 0.0 1.6 0.00 0.00 0.00 93 1017.8
20220811003520 16 155 0.0 3.2 0.00 0.00 0.00 91 1017.9
20220811002521 16 173 0.0 1.6 0.00 0.00 0.00 92 1018.1
20220811001521 16 177 0.0 1.6 0.00 0.00 0.00 91 1018.1